This is the latest recevied weather packets stored in our database for station/object KE0PRS. If no packets are shown the sender has not sent any weather packets the latest 10 day(s).
| Time | Temp. | Humidity | Pressure | Rain* | Wind** | Luminosity | Snow |
|---|---|---|---|---|---|---|---|
| 1776910405 | 18.33° C | 83% | 1005.9 hPa | 0 mm | - | 0 W/m² | - |
| 1776910102 | 18.33° C | 83% | 1005.8 hPa | 0 mm | - | 0 W/m² | - |
| 1776909800 | 18.33° C | 82% | 1005.9 hPa | 0 mm | - | 0 W/m² | - |
| 1776909496 | 18.33° C | 82% | 1005.6 hPa | 0 mm | - | 0 W/m² | - |
| 1776909193 | 18.33° C | 82% | 1005.7 hPa | 0 mm | - | 0 W/m² | - |
| 1776908891 | 18.33° C | 81% | 1005.8 hPa | 0 mm | - | 0 W/m² | - |
| 1776908589 | 18.33° C | 80% | 1005.8 hPa | 0 mm | - | 0 W/m² | - |
| 1776908285 | 18.89° C | 80% | 1006 hPa | 0 mm | - | 0 W/m² | - |
| 1776907981 | 18.89° C | 79% | 1006 hPa | 0 mm | - | 0 W/m² | - |
| 1776907678 | 18.89° C | 79% | 1005.8 hPa | 0 mm | - | 1 W/m² | - |
| 1776907375 | 18.89° C | 78% | 1005.9 hPa | 0 mm | - | 2 W/m² | - |
| 1776907072 | 19.44° C | 77% | 1005.9 hPa | 0 mm | - | 3 W/m² | - |
| 1776906770 | 19.44° C | 76% | 1005.9 hPa | 0 mm | - | 4 W/m² | - |
| 1776906466 | 19.44° C | 76% | 1005.7 hPa | 0 mm | - | 7 W/m² | - |
| 1776906163 | 20° C | 75% | 1005.7 hPa | 0 mm | - | 10 W/m² | - |
| 1776905859 | 20° C | 74% | 1005.7 hPa | 0 mm | - | 15 W/m² | - |
| 1776905555 | 20° C | 73% | 1005.9 hPa | 0 mm | - | 22 W/m² | - |
| 1776905251 | 20.56° C | 73% | 1006 hPa | 0 mm | - | 29 W/m² | - |
| 1776904948 | 20.56° C | 72% | 1005.8 hPa | 0 mm | - | 34 W/m² | - |
| 1776904646 | 20.56° C | 71% | 1005.9 hPa | 0 mm | - | 41 W/m² | - |
| 1776904344 | 21.11° C | 70% | 1006 hPa | 0 mm | - | 50 W/m² | - |
| 1776904039 | 21.11° C | 69% | 1006.2 hPa | 0 mm | - | 71 W/m² | - |
| 1776903735 | 21.11° C | 68% | 1006.1 hPa | 0 mm | - | 80 W/m² | - |
* Rain latest hour (hover to see other rain measurements)
** Current wind speed in m/s (hover to see current wind gust speed)